Home   Weather   Iqaluit   Past weeks
Flag for Canada

Past Weather in Iqaluit, Nunavut, Canada — Yesterday and Last 2 Weeks

Now
-17 °F

Passing clouds.


Feels Like: -29 °F
Forecast: -9 / -19 °F
Wind: 5 mph from North

Location: Iqaluit

Current Time: Jan 17, 2019 at 6:06:22 am

Latest Report: Jan 17, 2019 at 5:00 am


Visibility: 15 mi

Pressure: 29.83 "Hg

Humidity: 76%

Dew Point: -22 °F

Location of IqaluitLocation

Past Weather in Iqaluit — Graph

°F

Iqaluit Temperature Yesterday

Maximum temperature yesterday: -4 °F (at 12:00 am)
Minimum temperature yesterday: -22 °F (at 10:00 pm)
Average temperature yesterday: -9 °F

High & Low Weather Summary for the Past Weeks

 TemperatureHumidityPressure
High1 °F (Jan 13, 8:00 pm)85% (Jan 13, 9:00 pm)30.36 "Hg (Jan 13, 9:00 pm)
Low-31 °F (Jan 8, 6:00 am)57% (Jan 6, 5:00 pm)29.44 "Hg (Jan 15, 5:00 am)
Average-16 °F71%29.88 "Hg
* Reported Jan 2 5:00 am — Jan 17 5:00 am, Iqaluit. Weather by CustomWeather, © 2019

Note: Actual official high and low records may vary slightly from our data, if they occured in-between our weather recording intervals... More about our weather records

Advertising

Iqaluit Weather History for the Previous 24 Hours

Scroll right to see more
 ConditionsComfort  
Time TempWeatherWind HumidityBarometerVisibility
5:00 am
Thu, Jan 17
-17 °FPassing clouds.5 mph76%29.83 "Hg15 mi
4:00 am-17 °FPassing clouds.7 mph76%29.84 "Hg15 mi
3:00 am-18 °FPassing clouds.6 mph75%29.84 "Hg15 mi
2:00 am-18 °FPassing clouds.3 mph75%29.83 "Hg15 mi
1:00 am-17 °FPassing clouds.2 mph69%29.83 "Hg15 mi
12:00 am-18 °FPassing clouds.3 mph75%29.83 "Hg15 mi
11:19 pm
Wed, Jan 16
-17 °FPassing clouds.5 mph76%29.82 "Hg15 mi
10:00 pm-22 °FSnow flurries. Passing clouds.8 mph75%29.81 "Hg15 mi
9:00 pm-18 °FSnow flurries. Passing clouds.6 mph75%29.81 "Hg15 mi
8:00 pm-18 °FSnow flurries. Passing clouds.5 mph75%29.80 "Hg15 mi
7:00 pm-17 °FSnow flurries. Passing clouds.7 mph76%29.78 "Hg15 mi
6:34 pm-15 °FSnow flurries. Passing clouds.6 mph76%29.77 "Hg15 mi
6:00 pm-15 °FLight snow. Partly cloudy.5 mph76%29.77 "Hg10 mi
5:00 pm-13 °FLight snow. Partly cloudy.6 mph76%29.75 "Hg6 mi
4:00 pm-11 °FLight snow. Passing clouds.5 mph84%29.74 "Hg5 mi
3:00 pm-9 °FLight snow. Passing clouds.No wind77%29.72 "Hg5 mi
2:00 pm-8 °FLight snow. More clouds than sun.3 mph77%29.69 "Hg6 mi
1:00 pm-8 °FLight snow. Partly sunny.No wind77%29.67 "Hg6 mi
12:00 pm-6 °FLight snow. Mostly cloudy.3 mph77%29.66 "Hg3 mi
11:43 am-6 °FLight snow. Overcast.3 mph70%29.65 "Hg2 mi
11:33 am-6 °FLight snow. Overcast.3 mph77%29.65 "Hg2 mi
11:00 am-6 °FLight snow. Mostly cloudy.3 mph77%29.64 "Hg4 mi
10:35 am-8 °FLight snow. Mostly cloudy.5 mph77%29.64 "Hg4 mi
10:11 am-6 °FLight snow. Overcast.2 mph77%29.63 "Hg2 mi
9:55 am-6 °FLight snow. Overcast.No wind77%29.62 "Hg1 mi
9:34 am-6 °FLight snow. Ice fog.No wind77%29.62 "Hg2 mi
9:00 am-6 °FLight snow. Ice fog.2 mph77%29.61 "Hg1 mi
8:41 am-6 °FLight snow. Ice fog.No wind77%29.61 "Hg1 mi
8:16 am-6 °FLight snow. Ice fog.No wind77%29.61 "Hg2 mi
7:47 am-6 °FLight snow. Ice fog.No wind77%29.60 "Hg2 mi
7:00 am-6 °FLight snow. Ice fog.No wind77%29.59 "Hg3 mi
6:00 am-6 °FLight snow. Ice fog.3 mph77%29.58 "Hg3 mi
Weather by CustomWeather, © 2019

See weather overview